Theta_e
336 335 335 332 331 331 327 321 303 309 306 300 302 302 300 306 306 304 302 305 301 307 309 309 309 311 309 306 309 311 311 308 312 304 304 311 314 313 315 317 319 322 322 324 328 330 331 331 332 334 335 336 336 337 337 338 338 338 338 338 339 340 341 341 341 342 343 343 343 343 343 343 344 345 346 345 345 345 345 344 344 345 346 346 346 345 347 347 347 347 347 347 347 347 347 348 347
331 333 333 333 330 326 317 320 307 306 304 300 302 304 303 306 303 302 302 303 304 308 310 310 310 311 310 311 310 312 309 311 312 310 310 313 312 313 315 315 317 319 321 323 326 329 330 330 331 332 333 334 334 334 335 336 335 335 335 335 336 337 338 338 339 339 339 340 339 339 340 340 340 341 342 342 342 341 340 340 339 340 342 343 346 346 347 347 346 345 346 345 346 345 345 345 346
331 331 331 331 327 324 321 315 302 303 301 297 302 303 306 304 301 303 305 305 310 310 310 310 310 309 309 310 306 307 305 312 311 312 310 312 309 310 313 316 317 318 321 323 326 329 328 328 329 331 332 332 332 332 333 333 333 333 333 333 334 334 335 335 335 336 336 336 336 336 336 337 338 338 337 336 337 336 336 336 336 336 338 339 341 342 343 343 344 345 346 345 345 343 343 344 344
333 332 330 329 320 322 313 310 305 301 300 300 300 305 304 304 303 305 308 310 310 309 309 307 306 308 308 306 308 309 309 311 311 311 309 309 309 311 313 314 315 317 320 322 324 326 327 327 328 329 330 330 330 330 330 330 331 331 330 331 331 331 332 332 332 332 333 333 333 333 333 333 334 334 333 333 332 333 333 333 333 333 334 335 336 338 339 339 340 342 343 345 345 342 341 342 343
331 330 329 326 321 312 311 309 306 305 298 301 300 304 304 305 305 307 308 309 308 309 308 307 307 308 309 307 309 306 309 311 311 312 313 311 310 310 312 313 313 316 317 319 322 325 325 324 326 327 328 329 329 329 328 328 328 328 328 328 328 329 329 329 330 330 330 330 330 330 330 330 330 330 330 329 329 330 330 331 331 330 330 332 333 334 335 336 337 339 339 342 342 341 338 339 341
328 326 330 324 316 317 312 303 302 300 303 305 301 304 305 306 306 307 307 308 308 308 307 307 306 306 305 308 309 308 311 309 311 310 312 310 310 311 311 312 311 313 315 318 322 324 324 323 324 326 327 327 327 327 327 326 326 326 326 326 327 327 327 327 327 327 327 327 327 327 327 327 327 327 326 326 325 326 327 328 328 328 328 328 329 331 331 332 334 334 335 335 335 335 334 337 338
324 322 320 320 317 314 304 303 302 303 305 307 304 304 305 306 307 308 306 305 306 306 307 307 307 307 304 307 307 308 310 310 311 311 314 311 310 308 309 308 310 311 313 317 319 320 321 322 323 324 325 325 325 325 325 325 325 325 324 325 325 324 324 324 324 324 324 324 324 324 324 324 324 323 323 322 323 323 325 326 326 325 325 325 326 327 329 330 331 331 331 331 331 331 331 331 332
327 318 317 310 308 306 301 301 301 303 304 306 305 305 306 307 308 307 306 304 303 303 305 307 307 306 304 309 304 307 310 310 312 312 311 309 308 307 307 306 308 309 311 314 317 317 318 319 321 322 323 324 324 323 323 323 324 323 322 322 323 323 323 322 322 322 322 322 322 322 322 322 321 321 321 321 321 321 323 323 323 324 323 324 324 325 325 326 328 328 329 328 328 328 328 328 328
322 317 319 311 304 308 302 301 302 307 306 306 305 306 310 308 308 307 305 306 306 306 306 306 307 302 305 305 305 307 309 310 309 310 309 308 306 306 305 305 305 307 308 311 314 316 316 315 319 320 321 322 322 322 322 322 322 321 321 321 321 321 321 321 320 320 321 321 321 321 321 321 321 320 319 319 319 320 322 322 322 322 322 322 322 323 323 324 325 325 326 325 325 325 326 325 325
317 316 309 306 308 301 302 302 300 304 305 305 305 304 306 308 307 307 306 305 305 306 307 308 307 304 305 304 306 305 308 308 307 306 307 306 305 304 304 305 306 306 306 307 310 312 312 311 315 317 318 319 320 321 321 320 320 320 320 320 319 320 319 319 319 319 319 318 318 319 319 319 319 318 318 318 318 318 319 320 320 320 320 320 321 321 321 321 322 323 323 323 322 322 322 323 322
311 314 315 305 302 298 299 300 303 306 305 305 305 306 307 308 307 306 307 306 307 305 305 307 304 304 305 304 307 308 310 307 306 305 306 305 305 304 303 305 306 307 306 307 307 308 310 310 310 313 314 316 317 318 318 318 318 318 318 318 317 317 318 318 317 316 316 316 316 316 316 317 317 317 316 315 316 316 317 318 318 318 318 318 318 319 318 319 319 320 321 320 320 320 319 319 319
309 308 310 300 300 301 302 302 303 304 305 304 304 305 308 307 308 305 306 304 306 305 304 305 304 307 304 304 307 306 306 306 307 306 305 305 303 303 303 304 306 306 306 306 306 306 307 308 309 309 311 312 314 314 315 316 316 315 315 315 315 315 315 315 315 314 314 313 313 313 313 314 314 315 315 313 313 314 314 316 316 317 316 316 317 318 317 318 318 318 319 318 318 319 319 319 318
309 314 307 302 301 303 304 302 302 304 304 304 305 305 308 306 305 306 306 306 306 305 305 307 308 306 302 304 305 305 304 306 307 306 305 304 304 303 303 302 303 305 306 305 306 306 306 305 306 308 308 308 310 311 311 312 312 313 313 313 313 313 312 312 312 312 311 311 310 309 309 310 310 310 311 311 310 310 311 312 314 315 315 314 315 316 315 315 315 316 316 316 316 317 317 317 316
309 311 308 302 308 303 301 301 303 301 302 306 307 306 307 306 306 307 307 304 305 304 308 310 307 307 303 306 303 304 304 306 306 305 304 303 304 303 303 303 305 304 306 305 304 304 304 304 304 305 306 307 307 307 308 309 310 310 310 310 310 309 309 309 308 308 308 307 307 306 305 305 306 307 307 309 307 307 307 308 310 312 312 312 312 313 313 313 313 314 314 314 314 315 315 315 315
308 313 306 304 302 303 304 300 301 302 302 305 304 304 305 307 307 308 306 304 305 307 306 310 308 304 301 303 304 305 305 306 304 305 304 303 303 303 304 303 304 304 303 302 303 303 302 303 303 305 305 306 307 306 306 305 306 307 308 308 308 307 307 306 305 305 304 304 304 303 303 303 304 304 304 304 306 304 304 304 307 310 310 310 311 311 311 311 311 312 312 312 312 313 313 313 312
314 310 306 302 300 301 303 302 303 301 301 306 304 306 304 305 305 305 306 305 306 307 307 303 308 305 304 305 303 306 306 305 304 303 302 302 303 303 303 303 301 302 303 303 302 303 303 303 304 304 304 304 305 306 304 303 303 304 305 305 305 304 304 304 303 303 302 302 302 302 303 305 306 304 304 304 303 303 302 303 305 308 308 309 309 309 309 309 310 310 311 311 311 311 311 310 311
314 312 304 302 298 301 304 303 303 299 304 304 303 304 302 303 305 305 303 305 303 305 303 307 304 307 304 302 303 306 305 304 304 302 302 301 301 301 301 301 300 301 302 302 302 302 303 303 302 303 303 304 305 305 304 304 303 303 302 301 301 302 302 302 302 302 306 304 304 305 304 303 304 303 302 302 305 302 302 301 302 305 306 306 307 308 308 308 308 309 309 310 310 310 308 309 310
312 304 302 300 303 302 305 303 304 306 303 304 302 304 303 302 301 303 304 303 303 305 303 306 307 305 306 303 304 306 304 302 302 301 300 299 300 299 299 299 299 299 301 301 301 301 301 302 303 302 303 303 304 304 304 304 303 303 304 304 304 303 302 305 302 303 305 304 306 303 302 302 303 301 300 300 302 301 301 300 301 302 304 304 304 305 306 306 307 308 308 308 308 308 307 307 307
307 305 304 300 304 305 306 305 305 304 303 305 304 304 304 304 303 304 301 302 302 302 302 304 304 304 305 303 304 304 302 301 301 301 299 299 299 298 298 299 299 299 299 300 301 300 301 302 302 301 302 303 303 304 304 304 304 304 303 303 303 302 303 303 304 303 304 303 303 302 300 301 302 301 300 300 300 301 301 299 300 301 302 302 302 304 304 304 305 306 306 306 306 305 305 305 305
308 305 301 303 308 306 306 306 305 306 305 304 304 303 303 304 304 304 300 302 303 301 301 302 302 303 304 303 302 303 301 301 301 300 300 299 299 299 298 299 298 299 300 300 300 301 301 301 301 302 302 302 302 303 304 303 303 304 303 303 303 303 303 303 303 302 303 302 302 301 300 302 302 301 305 303 304 301 302 303 302 301 301 301 300 302 302 303 304 303 304 304 304 305 303 303 303
309 303 300 304 305 303 305 305 305 305 304 304 304 303 302 304 304 302 302 300 302 303 305 304 303 304 306 304 302 303 301 301 301 301 300 300 300 300 299 299 299 300 301 301 301 299 300 301 301 301 302 302 303 302 302 302 303 302 302 302 302 301 302 302 301 302 302 302 301 301 301 301 302 301 301 301 300 300 301 300 300 300 300 301 301 300 300 301 300 300 300 301 301 301 301 302 302
307 303 306 305 305 302 305 305 304 303 303 302 303 301 301 306 303 302 302 300 300 304 307 307 307 308 307 305 302 303 301 301 300 300 300 300 300 299 300 300 301 301 301 300 300 299 300 300 301 301 301 302 303 302 302 302 303 302 302 302 301 302 302 301 301 301 300 300 300 300 300 300 300 300 300 300 300 299 299 298 299 298 299 299 299 298 298 299 298 298 298 299 299 299 300 300 301
300 305 306 306 305 303 305 304 302 302 302 302 301 304 304 302 301 303 302 302 305 306 307 308 309 309 310 307 304 302 302 301 300 300 300 300 300 301 300 300 299 299 300 300 300 299 300 299 300 301 300 301 302 302 301 300 302 302 302 302 302 301 301 301 300 300 299 299 300 299 299 299 299 298 298 299 298 298 298 298 297 298 297 297 297 297 297 297 297 297 297 297 298 298 299 299 300
303 302 305 304 305 303 305 303 300 301 302 302 304 303 301 302 298 304 302 304 306 308 305 305 306 308 308 304 304 303 302 302 301 301 302 301 301 301 301 300 300 300 300 300 299 299 299 299 300 300 300 300 301 301 300 300 301 301 300 298 300 299 300 299 299 299 300 298 298 298 298 298 297 297 298 297 297 298 297 298 297 297 296 297 297 297 296 296 296 296 296 297 297 297 297 298 299
301 301 305 304 302 304 305 303 301 302 302 303 301 300 301 302 302 303 301 304 306 307 306 304 305 306 306 305 303 303 303 303 302 302 303 303 303 303 303 301 300 300 299 299 299 298 299 299 299 298 299 299 299 299 299 300 300 300 300 300 299 300 300 299 298 299 298 298 298 298 297 297 297 297 297 296 296 297 297 297 296 296 296 296 296 295 296 295 295 295 295 295 296 296 296 296 297
304 304 305 304 303 304 304 302 302 302 302 302 300 300 302 304 303 300 302 304 306 307 307 304 304 303 304 304 304 303 303 303 304 303 302 303 303 302 302 300 300 299 300 299 299 299 298 298 298 298 299 299 299 298 299 299 299 299 300 300 298 298 299 299 299 298 297 297 297 297 297 296 296 296 296 295 295 295 296 296 296 295 295 296 295 294 294 294 294 294 295 295 295 295 295 295 296
303 304 304 303 304 304 304 302 303 302 302 302 299 300 302 302 300 298 306 307 307 307 306 306 303 303 303 303 304 304 304 304 304 304 303 303 302 301 301 301 300 299 300 299 299 299 299 298 297 298 298 299 299 298 299 299 299 299 299 299 299 299 298 298 298 297 297 296 296 296 297 296 295 296 295 295 294 294 295 295 294 295 294 295 294 294 294 294 294 294 294 294 294 294 294 295 295
303 302 302 302 303 304 304 302 302 302 301 302 301 300 303 301 299 299 304 303 306 305 305 305 303 302 303 303 303 304 303 305 305 304 302 302 301 301 301 300 299 299 299 299 299 299 298 297 297 297 298 298 299 299 299 299 298 298 298 298 298 298 298 297 297 297 296 296 296 296 296 295 294 295 295 295 294 294 294 294 294 294 294 294 294 293 293 294 294 294 294 295 295 294 294 294 295
302 301 298 301 303 301 303 302 302 302 301 301 302 298 297 300 297 302 305 303 303 303 304 303 303 302 303 303 303 303 303 304 304 303 303 303 303 302 301 301 300 299 300 300 299 299 298 297 297 297 298 298 298 298 298 298 298 298 298 298 298 298 297 297 296 296 296 296 296 295 295 294 294 294 294 294 293 293 293 293 293 293 294 293 293 293 293 294 293 293 294 294 294 294 293 294 295
302 301 299 299 300 300 304 304 303 300 302 301 301 292 298 299 302 305 307 303 302 302 302 303 302 302 302 303 303 302 303 303 303 304 304 304 303 302 301 302 301 300 299 299 299 298 298 298 298 298 298 297 298 298 298 298 297 297 297 297 297 297 296 296 296 296 295 295 295 295 295 294 293 293 293 293 293 292 292 292 293 292 293 293 292 293 292 292 292 292 292 292 293 292 292 293 293
298 301 300 297 297 297 302 302 300 298 301 300 301 293 296 302 304 306 306 303 301 301 301 302 303 302 302 302 302 302 302 303 303 303 304 304 304 303 302 302 301 300 299 299 298 298 297 298 298 296 297 297 297 297 298 297 297 297 296 296 295 297 296 296 295 295 295 295 294 294 294 293 293 293 293 292 292 292 291 291 291 292 292 292 291 292 291 291 292 291 291 291 291 291 292 292 292
301 297 296 300 296 299 299 302 300 299 298 301 299 294 296 300 303 306 304 303 302 301 302 303 303 302 301 302 301 301 302 302 303 303 304 304 303 302 302 301 301 300 299 298 298 298 297 297 298 297 297 297 297 297 297 298 296 296 296 297 296 296 295 295 295 295 295 294 294 294 294 293 292 292 292 292 291 291 290 290 291 291 292 291 291 291 291 291 291 291 291 291 290 290 290 290 291
301 297 297 297 299 299 300 299 301 302 299 299 299 295 298 299 303 301 302 302 301 301 302 303 304 304 302 301 301 301 301 301 302 302 302 302 303 302 301 301 300 299 299 298 298 297 297 297 297 297 296 297 296 296 297 297 296 296 295 294 295 295 295 294 294 294 294 294 293 293 293 292 292 292 291 291 290 290 290 290 290 291 291 290 290 290 290 291 290 290 290 291 290 289 289 289 289
299 301 296 300 297 298 297 298 299 301 300 297 298 296 297 300 303 302 299 302 301 300 301 302 303 304 304 302 301 301 301 301 300 300 301 302 302 301 301 301 300 299 299 298 298 297 296 297 297 297 297 297 296 296 296 296 295 295 295 294 294 294 295 294 294 294 294 293 293 292 293 292 291 291 291 291 290 290 290 290 290 290 290 290 289 289 289 290 290 290 289 290 289 289 288 288 288
295 296 296 297 299 299 298 297 299 298 298 297 298 296 296 299 302 303 303 302 302 301 302 302 303 303 304 303 301 301 301 300 300 301 302 301 301 301 300 300 300 299 298 298 298 297 297 297 296 297 296 297 296 296 296 296 295 294 294 294 293 293 294 294 294 293 293 293 292 293 293 292 291 291 291 291 290 289 289 289 289 290 290 289 289 288 289 289 290 290 289 288 289 289 288 288 288
297 298 297 297 295 296 297 300 298 299 296 295 296 295 297 299 301 302 303 305 302 301 303 303 303 303 304 304 302 302 301 301 302 303 302 301 301 300 299 299 299 298 298 297 297 297 296 297 296 296 296 296 296 295 295 294 293 293 292 293 293 292 293 293 293 292 293 292 293 292 292 291 291 290 290 290 290 289 289 289 289 289 289 288 288 288 288 288 288 287 287 287 287 287 288 288 288
300 300 298 295 295 296 300 301 297 299 297 296 297 298 298 298 300 302 303 304 303 303 302 302 302 303 303 303 303 302 302 301 304 304 303 301 300 300 299 298 298 297 297 297 296 296 296 296 296 295 296 295 295 294 293 293 292 292 292 292 291 292 292 293 292 292 292 292 292 292 291 291 291 291 290 289 289 289 288 288 288 288 288 288 287 287 288 288 288 287 287 287 286 286 287 288 288
299 297 296 295 297 296 300 300 296 298 295 296 298 297 298 299 300 302 303 302 301 301 302 302 303 303 303 304 303 303 303 304 304 302 302 301 299 299 298 297 297 295 296 295 295 296 296 296 295 295 295 295 294 294 293 293 293 293 292 292 292 292 292 291 291 291 291 292 292 292 291 291 291 290 289 289 289 288 288 287 288 287 287 287 287 287 287 287 287 287 287 286 287 286 285 287 287
298 296 296 295 296 300 302 296 296 296 295 293 296 295 296 298 299 301 301 301 302 303 303 303 303 304 304 305 304 304 303 302 301 301 301 300 299 298 297 296 296 296 296 295 295 296 295 295 296 296 295 294 294 294 294 293 294 294 293 293 293 292 293 293 293 293 292 291 291 291 291 290 290 290 290 289 288 288 288 287 287 287 287 287 286 286 286 286 287 287 286 285 285 286 286 287 287
296 296 294 293 298 297 294 296 294 295 295 294 296 293 295 298 299 300 302 302 302 304 305 305 306 304 305 305 306 304 303 301 300 300 299 298 298 297 296 295 295 296 295 295 295 295 295 295 295 295 295 294 294 294 294 294 294 295 294 294 293 293 291 292 291 291 291 291 290 290 290 290 290 289 289 289 288 288 287 287 287 287 286 287 286 285 285 285 286 286 286 286 285 283 284 285 287
298 297 296 296 297 298 298 297 296 297 296 294 294 293 294 297 297 298 301 303 302 303 304 304 305 307 307 309 308 307 303 302 302 300 299 298 297 296 296 296 296 295 295 295 294 294 294 295 295 295 295 294 294 294 294 294 293 292 292 291 291 290 290 290 289 289 289 289 289 289 289 290 290 289 289 288 288 287 287 287 286 286 286 286 286 285 285 285 286 286 285 285 285 283 282 284 285
296 299 298 298 299 298 299 299 296 294 294 296 294 289 290 297 299 299 300 298 299 301 301 301 302 302 303 303 305 306 307 305 303 302 300 298 297 297 297 296 295 295 294 295 295 295 295 295 295 295 295 294 294 294 294 293 291 290 289 288 287 287 287 287 287 287 288 288 288 290 290 290 289 289 288 288 288 287 287 286 286 285 285 285 285 285 285 285 285 285 285 285 284 285 283 282 282
293 296 302 301 299 299 299 297 295 290 288 294 296 288 286 295 295 297 298 297 298 300 299 300 301 303 305 304 305 305 304 304 304 303 302 299 298 297 297 296 295 295 295 296 295 294 295 295 295 294 294 294 294 293 293 292 291 290 289 289 289 288 287 289 289 290 290 290 290 289 289 289 289 288 288 287 287 287 286 286 286 285 285 285 285 284 284 284 285 285 285 285 284 284 284 281 282
293 296 296 297 296 296 296 296 295 292 297 297 294 294 287 287 294 298 299 298 298 299 300 301 303 303 304 306 305 304 304 304 304 303 302 300 298 297 296 296 296 295 295 295 295 294 294 294 294 294 294 294 294 293 292 292 290 290 289 289 290 289 289 289 290 290 291 290 289 288 288 288 288 288 287 287 287 286 286 285 285 285 284 284 284 284 284 284 285 285 285 285 284 284 283 282 281
296 294 298 297 297 297 296 295 293 293 291 287 292 295 288 288 294 298 298 294 295 296 297 299 301 302 303 306 305 305 304 305 304 303 302 301 299 298 298 297 297 296 296 295 294 294 294 294 294 294 293 293 293 293 292 291 291 290 290 290 289 290 291 291 291 290 288 288 287 287 287 287 287 287 287 287 286 286 285 285 285 284 284 284 284 284 284 284 284 284 283 283 283 283 283 283 282
295 296 297 296 297 295 295 293 292 291 288 285 290 292 286 287 295 295 296 295 294 296 298 299 301 302 304 305 308 305 304 305 305 304 303 302 301 300 299 298 297 296 296 296 295 295 294 294 293 293 293 293 293 292 291 291 291 291 290 290 289 289 289 289 289 288 287 287 286 287 287 287 286 286 286 286 286 285 285 284 284 284 283 283 283 283 284 283 283 283 283 283 283 282 283 283 282
296 297 296 295 294 293 293 293 291 288 284 286 292 292 290 284 293 293 293 294 296 298 299 300 302 304 304 306 309 307 304 304 304 303 303 303 302 301 299 298 297 296 296 295 295 294 294 294 293 292 293 292 292 291 291 291 290 290 290 290 289 289 289 288 287 287 287 287 286 286 286 286 286 286 286 285 285 285 284 284 284 283 283 283 283 283 282 283 283 283 283 283 282 282 281 282 282
298 294 293 294 292 292 290 289 289 284 283 290 293 292 292 283 289 294 297 299 299 299 298 300 301 302 305 307 308 307 305 303 303 303 302 302 301 300 299 297 297 296 295 295 295 294 294 293 293 292 292 292 292 291 291 290 290 290 290 290 289 289 289 288 287 286 286 286 286 285 286 286 285 286 285 284 284 284 284 283 283 283 282 282 282 283 283 283 282 282 282 282 282 282 282 281 281
295 294 293 288 286 287 284 286 282 283 283 288 292 294 289 287 292 296 297 298 299 301 301 301 301 301 304 306 309 305 305 304 303 302 302 301 300 299 297 297 296 295 294 294 294 294 293 293 293 292 291 291 291 291 290 290 289 289 289 289 289 289 289 288 287 287 287 286 286 285 285 284 285 284 284 283 284 284 283 283 282 282 282 282 283 282 282 282 282 281 281 281 281 281 281 281 280
292 291 290 287 283 283 280 284 287 287 289 289 289 293 286 291 294 298 298 299 301 301 302 303 303 302 303 308 307 305 304 304 303 303 302 301 300 299 298 297 296 295 295 294 294 293 293 293 292 291 291 291 291 290 290 289 289 289 289 289 289 288 288 288 287 286 286 286 286 285 285 284 284 284 283 283 284 284 283 283 282 282 282 282 282 281 281 281 281 281 281 280 280 281 281 280 280
291 296 293 289 288 284 280 284 281 283 286 287 290 285 284 285 290 299 299 301 301 302 303 304 305 305 307 306 306 304 304 303 303 303 303 302 301 300 298 297 296 296 295 294 294 293 293 292 292 291 291 291 290 290 289 289 289 289 288 288 288 288 287 287 286 286 286 285 285 284 284 284 283 283 283 283 283 283 282 282 281 281 281 281 281 281 281 281 281 281 280 280 280 280 280 280 279
294 295 297 290 288 293 285 287 287 285 284 285 285 284 290 291 299 299 301 301 301 301 301 301 302 303 305 305 303 302 303 303 302 303 303 302 301 300 299 298 297 296 295 294 293 293 293 292 292 291 291 290 290 289 289 289 288 288 288 287 287 287 286 286 286 285 285 285 284 284 283 283 283 282 282 282 282 281 281 281 281 280 281 280 280 280 280 280 280 280 279 279 279 280 279 279 279
292 293 288 291 298 294 289 289 287 284 284 282 289 287 291 295 296 299 299 299 299 300 300 300 300 302 304 305 305 303 303 303 303 303 303 302 301 301 300 298 297 296 295 294 293 293 293 292 292 291 291 291 290 289 289 288 288 287 287 287 286 286 285 285 284 284 284 284 284 283 282 282 282 282 281 281 281 280 280 280 280 280 280 280 280 280 279 279 279 279 279 278 278 279 279 278 278
293 287 292 297 299 296 289 284 286 285 282 283 289 286 288 290 287 296 296 296 297 298 298 299 300 301 301 303 306 307 306 304 304 303 303 302 301 300 300 299 298 296 295 294 294 294 293 293 292 291 290 290 289 289 288 288 287 287 286 286 286 285 284 284 284 283 283 283 282 282 281 281 280 281 280 281 280 279 279 280 279 279 279 279 279 279 279 279 279 278 278 278 278 278 278 278 278
292 290 296 289 285 284 289 286 278 279 280 282 287 289 289 291 291 292 292 293 295 297 298 298 299 300 301 303 304 306 307 307 305 303 302 302 301 301 300 299 298 297 296 295 294 294 293 293 292 291 290 290 289 289 288 288 287 287 286 285 285 284 284 283 283 283 283 281 281 281 280 280 280 280 280 279 279 279 279 279 279 279 279 278 279 278 278 278 278 277 278 277 278 278 277 277 277
293 294 291 293 289 288 286 286 287 286 282 282 282 286 285 295 294 294 293 294 296 296 297 297 298 299 300 301 303 304 305 307 306 304 303 303 302 300 299 298 297 297 296 295 294 293 292 292 291 291 291 290 289 288 287 286 287 286 285 285 284 284 283 282 282 281 281 280 280 280 280 280 279 279 279 279 279 278 278 278 278 278 278 278 278 278 277 277 277 277 276 276 276 276 276 275 276
287 287 286 289 287 290 290 290 287 285 283 283 282 281 286 294 298 296 295 295 297 297 297 299 299 299 300 302 303 306 307 308 307 305 304 303 301 299 298 298 297 296 296 295 294 292 292 291 290 290 289 289 288 287 287 286 286 285 284 283 283 282 282 282 281 281 280 280 280 280 279 279 279 278 279 278 278 278 278 278 277 277 277 277 277 276 277 276 276 275 275 275 275 275 274 274 275
292 289 287 289 287 285 283 281 290 286 285 282 282 281 287 296 298 298 298 297 298 299 299 300 301 300 301 303 304 306 307 306 307 306 305 303 301 299 297 296 296 295 294 293 293 292 291 290 290 289 289 288 287 287 286 286 285 284 283 283 282 282 281 281 280 279 279 279 279 279 278 278 278 278 278 277 277 277 277 277 277 276 276 276 276 276 275 275 275 274 274 275 274 274 274 273 274
Wind_Speed
6 6 2 3 4 4 4 5 5 5 5 7 5 3 3 5 4 4 6 5 5 4 1 1 3 4 5 1 3 6 6 6 5 4 1 2 4 3 2 2 2 3 4 4 4 3 6 9 8 10 11 12 12 13 13 13 14 14 15 15 15 13 14 14 14 15 15 16 16 17 17 16 16 17 17 17 16 17 18 17 17 17 17 16 14 14 15 14 14 14 14 13 13 14 14 13 13
3 2 3 3 3 3 4 2 5 5 6 7 5 3 6 6 5 6 8 8 0 6 4 2 3 1 5 3 4 4 1 8 6 6 4 4 5 3 2 1 3 5 4 4 3 3 6 8 9 10 10 12 13 13 14 14 14 15 15 15 15 15 14 15 15 15 16 16 16 16 17 16 16 16 17 17 17 17 16 16 16 17 17 17 18 17 17 17 16 15 15 13 14 15 15 15 16
1 3 3 4 4 5 4 4 5 5 6 7 4 3 7 5 7 5 6 7 8 7 6 4 1 1 4 3 6 7 3 3 8 8 6 8 7 4 3 2 3 4 5 3 3 5 5 8 9 9 10 11 12 12 13 14 14 15 15 15 15 15 15 15 15 15 15 16 15 16 15 16 16 16 16 16 15 16 16 16 16 16 16 16 17 17 18 18 18 19 18 15 16 16 16 16 16
4 3 4 2 3 3 4 5 7 8 7 6 2 7 5 4 5 4 8 10 9 8 6 5 5 3 4 10 3 4 2 5 5 7 6 7 3 7 4 3 2 3 4 2 3 6 6 8 9 10 10 11 12 12 13 13 14 14 14 15 15 15 15 15 15 15 15 15 15 15 15 15 16 16 16 16 16 16 16 16 16 16 16 16 16 16 17 17 17 18 18 19 17 17 17 17 16
4 2 3 3 5 6 5 6 7 7 8 4 4 6 4 4 6 8 7 7 8 5 6 4 3 3 3 5 5 3 5 6 4 2 6 5 6 6 5 4 3 4 4 3 4 6 7 9 9 9 10 11 11 12 12 13 13 14 14 14 14 14 14 15 15 15 15 15 15 15 15 16 15 16 16 16 16 16 16 16 16 16 16 16 16 16 16 16 17 16 17 18 19 18 17 17 16
4 3 3 4 3 4 4 6 7 8 9 5 7 5 4 4 7 8 8 7 6 4 2 5 2 4 4 4 3 2 3 2 5 4 5 6 7 6 6 5 4 4 4 4 4 6 7 8 9 9 10 11 11 12 12 12 13 13 13 14 14 14 14 14 14 14 14 15 15 15 15 15 15 15 15 15 15 15 15 15 15 16 16 16 16 16 16 16 16 16 16 17 17 16 16 16 17
2 4 3 4 4 3 5 8 8 8 4 4 3 4 2 4 8 10 9 7 3 1 2 4 2 2 6 4 3 3 3 3 4 5 1 9 7 6 6 4 5 5 4 4 5 7 9 9 9 9 10 10 11 11 12 12 12 13 13 14 14 14 14 14 14 14 14 14 14 14 14 14 14 14 14 14 14 14 14 14 14 14 15 15 16 16 16 16 16 16 16 16 16 16 15 16 16
3 5 2 5 5 4 7 9 9 8 2 5 3 2 2 6 9 8 9 7 6 5 8 3 3 7 1 3 4 4 4 2 6 7 10 8 8 6 5 5 5 5 5 5 6 7 9 10 9 9 10 10 10 11 11 12 12 13 13 13 13 13 14 13 14 14 14 14 14 14 14 14 13 14 14 13 13 13 14 14 13 14 14 14 15 15 15 15 16 16 16 15 15 15 15 15 16
3 5 2 4 7 5 7 9 9 4 4 3 3 2 5 5 8 7 9 6 6 6 8 8 6 5 3 5 4 4 4 5 6 7 8 9 8 7 4 5 6 5 5 5 5 6 7 9 9 9 9 10 10 11 11 12 12 12 13 13 13 13 13 14 13 14 14 13 14 13 14 13 13 13 13 13 13 13 13 13 13 14 14 14 14 14 15 15 15 15 15 15 15 15 15 15 15
4 4 3 5 5 8 8 8 8 3 3 5 1 3 5 6 7 7 8 8 5 6 4 7 7 10 4 5 3 5 6 8 8 8 8 8 8 7 5 4 5 6 6 5 5 5 5 8 9 9 9 10 11 11 11 12 12 12 13 13 13 14 14 14 14 14 14 14 14 13 13 13 13 13 13 13 13 13 13 13 13 13 13 13 14 14 14 14 15 15 15 15 15 15 15 15 15
5 5 3 5 7 7 8 7 6 3 2 4 4 3 5 5 7 8 8 7 6 6 7 5 5 12 6 6 1 5 9 10 11 10 9 9 8 7 7 5 5 5 6 6 6 6 6 6 9 9 9 10 10 11 11 12 12 12 13 13 13 13 13 13 13 13 13 14 13 13 13 13 13 13 13 13 13 13 13 13 13 13 13 13 13 13 13 13 14 14 15 15 15 15 15 15 15
5 5 4 6 7 7 6 6 7 6 2 3 4 7 5 8 7 9 10 10 8 7 8 11 1 6 10 8 3 6 11 11 10 10 11 9 8 7 7 6 5 5 6 6 5 5 6 6 5 7 9 10 11 11 11 11 12 12 12 13 13 13 13 13 13 13 13 13 13 13 13 13 13 13 13 13 13 12 12 12 12 12 12 12 12 13 13 13 13 13 14 14 14 15 15 15 16
6 2 5 6 8 7 6 7 7 5 8 7 5 7 7 9 11 10 10 9 8 9 9 13 3 3 5 6 5 7 10 12 10 11 11 9 8 7 6 6 6 6 5 5 5 5 5 5 5 5 7 10 11 12 11 11 11 12 12 12 12 12 12 12 12 12 12 12 12 12 12 12 12 12 12 13 13 13 12 12 12 12 12 12 12 12 13 13 13 14 14 14 14 14 15 15 16
5 3 5 7 3 7 9 8 8 8 7 2 5 9 8 8 9 9 7 11 10 10 3 12 4 2 9 2 5 6 9 13 12 12 9 10 8 6 6 6 5 5 5 4 5 5 4 4 5 5 5 5 7 8 11 11 11 11 11 11 11 11 11 11 11 11 10 10 10 9 9 9 10 10 10 10 11 12 11 11 11 11 10 11 11 11 11 11 12 12 13 13 14 14 15 15 16
5 1 4 7 8 7 6 7 6 6 6 8 6 8 8 7 4 9 9 10 6 7 6 3 5 3 4 11 3 5 10 15 13 12 11 9 8 7 6 5 5 4 4 4 4 4 5 4 5 4 3 4 4 4 5 7 10 10 10 10 10 10 10 9 9 9 8 8 7 6 4 5 6 8 7 9 8 10 10 9 10 10 10 10 10 9 9 10 10 10 11 11 12 13 14 14 14
4 3 4 6 8 6 1 5 3 5 6 4 6 4 9 6 3 6 4 4 3 1 6 6 7 7 4 3 5 3 14 15 13 12 11 10 8 7 7 6 6 6 4 4 5 4 4 5 4 4 3 3 4 5 5 6 8 9 9 9 9 9 8 7 7 6 7 7 5 4 3 4 6 7 9 6 8 9 11 9 10 11 11 11 11 10 10 10 10 10 10 11 11 12 12 13 12
3 4 5 6 9 6 2 4 0 5 4 3 6 7 9 7 6 4 5 4 6 5 7 6 9 5 4 3 4 4 14 14 13 13 11 9 8 7 6 6 6 6 4 6 6 5 5 5 5 4 4 5 5 5 5 4 4 6 7 7 7 7 5 6 5 6 4 5 5 4 1 5 5 5 7 7 6 7 9 11 11 11 11 11 12 11 10 10 12 11 11 12 12 11 11 13 11
4 5 6 7 7 8 4 6 5 4 9 2 6 8 9 8 6 6 2 8 8 6 7 8 7 7 4 5 1 6 14 15 15 15 12 10 9 8 8 8 8 7 7 6 7 7 7 5 5 5 5 5 5 4 3 3 3 2 3 3 3 3 4 2 4 4 5 4 2 3 5 5 4 5 5 7 4 6 6 7 9 9 10 10 13 10 10 10 12 11 10 11 12 10 11 5 5
5 5 5 8 6 3 3 5 6 6 6 3 3 6 8 8 9 7 7 10 12 13 12 10 12 11 9 8 6 12 15 15 15 15 16 15 12 13 11 9 10 9 9 8 7 9 7 6 7 6 6 6 6 4 3 3 3 3 4 3 3 3 3 3 3 4 5 4 4 4 5 4 4 4 4 3 4 5 0 3 7 7 8 8 13 9 8 9 12 9 10 11 11 9 6 5 5
8 5 7 7 2 4 4 2 6 3 4 6 3 6 8 5 4 7 9 12 11 16 12 12 15 16 16 13 12 14 15 15 16 16 17 16 15 14 13 12 12 11 10 9 9 8 8 7 7 6 7 6 6 4 4 4 3 3 2 2 2 2 2 2 3 3 4 4 4 4 4 4 3 4 2 1 4 5 3 1 3 5 6 5 12 6 7 8 11 9 9 11 7 6 6 6 6
3 5 7 5 3 5 2 0 2 2 2 6 5 2 7 7 5 8 7 10 16 15 15 15 17 18 16 16 14 15 16 16 16 17 16 16 15 12 12 12 11 10 9 9 8 9 10 9 8 7 7 6 5 4 4 4 3 3 3 2 2 2 1 2 2 3 3 3 4 3 3 3 3 3 4 4 4 4 4 5 5 5 5 5 8 5 5 6 7 6 6 7 6 6 6 6 6
1 8 9 7 2 7 1 1 3 2 1 5 6 6 7 5 6 10 11 13 12 10 14 18 16 14 13 16 17 16 16 17 17 18 18 18 18 17 13 11 11 10 9 9 10 9 10 9 9 8 8 7 6 5 5 3 3 3 3 3 3 2 2 1 2 2 2 3 3 3 3 3 3 3 4 4 4 4 4 5 5 5 5 5 6 5 5 6 6 5 6 6 6 6 7 7 7
7 9 11 6 5 8 2 1 2 2 4 6 7 8 2 8 7 11 15 19 15 4 6 3 11 13 9 15 15 16 17 18 19 20 19 19 18 18 15 12 12 11 10 10 9 9 10 10 9 9 8 7 7 5 4 5 4 3 3 3 3 3 2 2 2 2 3 3 2 3 3 3 3 3 3 4 4 4 4 5 5 5 6 5 6 5 6 6 6 5 6 6 6 6 6 7 7
7 8 3 6 3 8 1 1 3 4 5 7 3 4 6 8 13 9 16 21 19 8 3 1 2 0 6 14 16 18 19 20 21 21 20 20 19 19 16 14 12 10 9 10 10 10 10 11 10 9 8 8 7 6 6 5 4 4 4 4 2 2 2 2 2 2 3 3 4 3 3 2 2 3 3 3 4 4 5 5 5 5 5 5 6 5 6 6 6 5 6 6 6 6 7 7 6
9 9 8 3 1 7 5 3 4 4 7 5 3 7 12 11 11 5 18 18 15 16 6 6 5 6 9 12 15 16 17 18 18 17 15 13 15 15 14 11 12 11 12 12 10 10 12 11 11 11 9 9 8 7 6 5 5 5 4 3 3 3 2 2 2 3 2 3 4 3 3 2 2 3 3 4 4 4 5 5 5 5 6 5 6 6 6 6 6 6 5 6 6 6 6 6 6
12 11 4 6 7 5 4 5 6 7 4 5 6 13 12 11 5 15 22 18 16 15 14 9 9 9 12 13 15 16 16 18 18 17 18 15 14 16 17 14 13 13 13 12 11 10 11 12 12 12 10 9 8 8 6 6 6 5 4 4 4 4 3 2 3 2 2 2 3 3 3 3 2 3 3 3 4 5 5 5 5 5 6 5 5 6 6 6 6 6 6 6 6 6 6 6 6
4 6 7 8 9 6 6 9 8 6 7 6 10 12 11 3 3 12 12 11 11 15 15 12 11 13 14 12 13 14 16 18 19 16 14 14 15 16 17 15 15 14 13 14 12 10 11 12 11 11 11 10 8 8 7 7 6 6 5 5 4 3 4 3 2 2 2 2 3 3 3 3 2 3 3 4 4 4 5 5 5 5 5 5 5 5 5 6 6 5 6 6 6 6 6 5 6
5 6 8 11 12 11 9 8 10 4 8 11 9 12 12 7 7 18 11 4 5 10 13 13 12 13 13 14 14 13 14 15 14 15 18 18 15 15 17 16 16 14 14 14 11 10 11 13 12 12 11 10 9 8 7 7 6 6 6 5 4 4 4 3 3 2 2 2 3 2 2 3 2 2 3 3 3 4 3 4 5 5 5 5 5 5 6 6 6 6 6 6 7 6 6 6 5
3 4 9 11 10 12 14 15 12 10 6 7 3 8 12 13 14 23 18 7 7 8 11 12 14 12 13 13 13 12 14 13 14 15 18 17 14 13 17 16 15 14 11 13 12 12 13 13 12 12 11 11 10 9 8 7 6 6 6 5 5 4 4 3 3 3 2 3 2 2 2 2 2 2 2 3 2 2 3 4 4 4 5 4 5 7 7 6 6 5 6 6 6 6 6 6 5
4 7 8 11 11 14 17 12 6 9 6 8 5 8 8 18 25 21 11 11 9 10 12 13 12 12 12 12 12 13 12 13 15 16 15 15 15 14 16 15 16 13 11 11 13 13 11 9 8 9 11 11 11 9 9 7 7 7 6 5 5 5 4 4 3 3 2 2 3 3 2 2 2 2 2 1 2 2 3 3 4 4 4 5 6 6 5 5 6 5 6 6 6 6 6 6 6
6 2 3 8 9 9 8 9 11 9 6 8 5 9 14 8 11 19 9 11 12 12 12 13 13 12 12 12 12 13 14 15 17 17 16 16 14 13 16 15 16 16 11 12 15 15 14 11 9 8 10 11 11 10 9 8 8 7 6 6 6 5 4 4 4 3 3 3 3 3 3 2 2 1 1 1 1 2 3 3 4 4 4 6 6 5 6 6 5 5 5 6 6 6 6 7 7
7 6 9 8 9 6 8 7 13 11 4 8 8 9 15 15 11 6 10 9 10 11 12 13 13 13 13 12 13 13 14 15 16 17 17 16 16 13 15 17 16 16 16 14 14 14 14 13 11 10 12 12 11 9 9 8 8 7 6 6 5 5 4 4 4 4 3 3 3 2 4 3 2 1 1 0 1 2 3 4 4 4 6 6 6 6 6 6 6 6 6 6 7 7 7 8 7
8 9 11 12 9 9 8 12 11 7 8 9 15 10 9 11 6 4 5 7 8 10 12 12 15 16 15 13 13 13 13 14 14 17 17 16 15 14 14 16 17 18 16 15 15 15 14 14 13 12 14 12 12 10 9 8 7 7 6 5 5 5 4 4 4 4 4 4 3 3 4 3 3 2 1 0 2 2 3 4 4 5 5 6 6 7 6 5 6 6 6 6 6 7 8 9 8
9 10 10 10 12 10 10 7 7 8 9 9 14 12 17 16 9 5 6 7 9 11 14 15 16 15 15 13 14 13 14 14 17 17 19 17 14 16 14 15 16 17 15 15 16 16 15 14 13 12 12 11 10 10 9 8 7 7 6 5 5 5 4 4 4 4 4 3 4 3 3 3 2 2 1 1 2 3 3 4 4 5 5 5 6 7 6 6 5 5 7 6 7 7 7 8 9
10 10 9 10 11 12 14 11 8 9 10 12 12 16 20 20 18 18 10 11 13 15 16 17 19 18 16 14 14 16 14 16 17 16 18 18 16 16 14 15 16 16 14 16 15 15 13 12 11 12 12 12 11 10 10 8 8 7 5 6 5 4 4 4 4 4 4 4 3 3 4 3 3 2 2 1 2 3 3 4 4 5 5 5 6 7 7 6 6 5 6 8 7 7 8 8 9
16 15 12 12 12 12 13 6 9 11 10 10 14 15 17 19 18 17 17 16 14 16 18 17 20 19 17 16 15 14 14 17 13 13 15 15 15 15 14 14 14 15 15 15 16 15 14 13 12 12 12 12 11 10 9 8 7 7 7 6 5 5 5 5 5 4 4 4 4 4 4 3 2 2 2 2 3 3 4 4 5 5 5 5 6 7 7 6 6 7 7 7 8 8 7 8 8
14 12 10 15 16 18 17 11 5 6 7 13 16 17 18 21 19 19 19 16 17 17 18 19 19 17 14 15 17 15 15 15 9 12 14 16 17 14 14 13 14 15 16 16 16 16 16 14 14 15 13 13 11 11 10 9 9 8 7 7 7 7 6 6 5 5 4 4 4 4 4 4 3 3 3 3 4 4 4 5 5 5 5 6 6 7 7 8 7 7 7 6 8 8 7 6 7
12 15 15 14 13 16 14 7 7 5 5 9 12 15 18 20 17 19 18 17 21 19 21 22 21 18 15 17 17 16 13 6 9 11 12 14 14 14 13 13 15 17 16 16 18 17 17 16 16 14 13 13 12 11 10 9 9 8 8 8 7 7 7 7 6 5 5 4 5 5 4 4 4 4 3 4 4 4 4 5 5 5 5 6 7 8 8 9 9 7 6 6 6 7 7 6 7
13 11 11 12 14 14 14 6 5 4 5 10 12 15 17 19 19 20 20 19 19 19 20 19 19 18 14 14 15 13 10 10 10 12 13 13 15 15 13 13 14 16 17 18 18 17 17 16 14 14 13 13 12 12 10 10 9 8 8 7 8 6 5 5 5 5 5 5 5 5 5 4 5 4 5 5 4 5 5 5 5 5 6 6 7 7 8 8 7 7 7 6 7 6 7 6 6
11 10 9 12 12 8 7 4 3 5 5 7 10 16 16 20 21 24 24 20 20 21 19 17 16 17 17 16 12 9 12 11 13 13 14 13 14 14 13 13 14 14 15 16 17 18 15 15 15 15 13 13 12 12 10 10 9 8 6 6 5 5 5 5 3 3 3 5 5 5 5 5 6 5 5 6 5 5 5 5 5 5 6 6 6 8 8 8 8 7 6 6 6 8 6 6 5
10 12 12 13 13 13 10 5 1 6 12 3 9 14 14 15 15 13 16 17 16 19 16 16 15 13 15 9 9 10 12 12 11 13 14 15 16 17 17 16 14 16 16 16 17 17 13 16 15 15 13 13 11 12 12 10 9 8 6 5 4 3 2 3 4 5 6 6 6 6 7 7 6 6 6 6 6 6 6 6 6 6 6 6 7 8 8 8 7 6 6 6 6 7 9 7 6
10 13 17 17 15 14 12 3 8 8 11 5 5 13 11 8 12 12 6 4 9 11 9 13 14 12 11 13 14 11 9 10 11 14 15 16 16 15 15 15 16 15 16 16 15 16 14 14 15 15 12 12 12 13 13 11 10 10 10 8 8 7 7 7 8 8 8 8 8 6 6 7 7 6 6 6 6 6 6 6 6 6 6 7 7 8 8 8 8 7 6 6 7 7 8 8 7
10 8 5 14 15 15 11 11 5 8 7 2 4 5 17 5 7 7 6 8 9 7 10 12 13 12 8 10 9 10 11 10 11 10 12 15 15 15 16 17 17 17 16 14 14 15 15 14 15 15 13 12 12 13 15 11 11 10 11 10 9 9 9 8 7 6 7 6 6 7 6 6 7 7 7 6 6 7 6 6 6 6 7 7 8 8 9 9 7 6 5 6 6 6 7 8 8
9 4 1 3 4 7 9 6 7 11 10 6 6 5 15 17 8 7 9 10 10 9 10 11 12 15 14 7 9 11 11 11 10 13 13 14 15 17 18 18 17 16 15 14 14 15 17 16 16 16 13 12 12 13 15 12 12 11 12 11 9 9 9 8 9 7 6 5 6 6 5 5 6 7 6 7 7 7 6 6 6 6 7 8 8 8 9 8 7 6 6 6 6 6 7 7 9
2 2 2 2 1 3 1 4 7 7 9 10 7 10 7 14 2 17 16 13 13 13 15 14 15 17 18 8 9 11 11 11 11 11 13 15 16 16 15 15 15 15 15 15 15 15 15 15 15 16 14 14 13 15 14 14 12 12 11 10 10 8 8 6 6 6 6 6 6 5 6 5 6 7 7 7 7 7 6 6 6 7 8 8 8 8 9 8 8 7 7 6 7 7 6 7 8
2 4 6 5 3 3 3 4 5 8 7 14 8 13 7 22 4 8 12 12 11 13 14 14 15 14 15 12 6 9 9 9 10 11 12 13 13 13 14 13 14 14 14 14 14 14 14 14 16 18 17 14 13 16 14 15 14 11 11 11 11 9 7 6 6 7 7 6 6 6 6 6 6 6 7 8 7 7 7 7 6 8 8 8 8 9 9 9 8 8 7 7 8 8 7 8 9
7 4 2 1 2 4 3 5 5 5 13 15 13 18 12 16 3 10 11 9 12 11 9 11 13 9 11 13 6 8 8 8 8 10 11 11 11 11 12 14 14 14 12 14 13 14 14 15 17 18 17 13 14 16 16 16 14 12 11 11 12 11 11 9 8 8 7 7 6 6 6 5 6 6 5 6 7 7 7 7 6 7 7 8 8 9 9 8 7 7 7 8 8 9 8 9 10
5 2 4 3 6 4 4 3 3 5 14 3 17 19 20 13 4 7 10 12 15 14 12 10 12 8 8 8 6 6 7 8 9 9 9 10 10 10 11 13 14 15 14 14 13 14 14 15 15 18 17 17 14 15 15 15 14 13 12 12 13 12 11 9 10 9 9 8 7 6 5 5 5 5 5 5 5 6 5 5 6 7 7 8 9 8 8 7 6 6 7 7 7 8 9 9 10
5 5 4 4 4 2 5 4 5 9 12 3 5 14 11 23 17 5 6 9 12 12 9 9 9 9 6 7 5 5 6 7 8 8 9 10 11 12 13 13 13 15 14 16 15 14 14 15 17 19 19 17 15 16 16 16 14 13 12 12 11 10 10 9 9 8 8 7 6 6 6 5 5 5 5 5 5 5 5 5 6 7 7 7 8 8 8 8 7 7 7 8 8 9 8 9 9
10 10 8 5 8 7 8 9 8 10 3 4 5 1 12 11 11 17 18 13 13 14 12 9 10 10 9 4 6 5 5 7 7 7 8 9 10 11 12 13 14 13 14 15 15 15 14 13 17 19 19 17 15 16 16 16 15 14 12 11 11 9 10 9 8 8 7 6 6 6 6 5 5 5 5 5 4 4 4 5 6 7 8 8 9 9 9 8 8 7 8 8 9 9 9 10 11
13 8 9 9 6 4 6 7 9 9 6 3 6 1 5 1 4 15 22 20 17 13 10 10 12 10 6 6 4 4 6 7 6 7 7 9 10 12 12 12 12 12 14 14 14 14 14 14 16 19 18 19 18 17 15 17 14 14 12 11 10 9 9 8 7 7 7 7 6 6 6 5 5 5 4 4 4 4 5 6 7 8 8 8 9 9 8 8 8 7 7 8 8 8 9 10 10
8 7 6 6 11 7 12 7 5 6 8 11 7 8 5 9 3 8 9 13 17 13 11 14 13 11 8 5 6 6 6 6 7 7 8 9 10 10 10 10 12 12 14 13 15 13 14 15 17 19 20 18 17 17 15 15 14 13 13 13 12 11 9 8 7 7 7 7 7 6 6 6 5 4 4 4 4 4 5 7 8 8 8 9 9 9 9 8 8 8 8 8 9 7 9 11 11
7 8 8 9 4 8 6 9 2 2 3 17 5 9 12 10 19 12 10 14 17 15 14 16 16 15 11 9 8 7 7 7 7 8 8 9 8 9 10 11 11 12 12 14 15 15 16 14 15 18 18 16 16 16 15 15 14 14 14 13 12 11 11 10 9 9 9 7 7 6 5 5 5 4 4 4 5 5 6 7 8 8 8 8 9 9 9 9 8 8 8 9 9 9 10 11 11
8 6 7 5 3 4 2 6 3 6 9 17 6 15 16 11 12 12 15 17 16 18 17 19 17 12 12 11 9 6 7 8 8 7 7 8 10 12 12 11 13 13 14 14 15 13 13 13 15 17 17 18 16 16 16 15 15 14 14 14 13 12 10 10 9 9 8 7 7 6 5 5 6 5 5 5 5 6 7 8 8 8 8 8 9 9 9 9 8 8 9 9 9 9 10 10 11
2 1 8 5 4 5 8 3 5 7 10 11 17 20 17 18 14 6 14 17 18 18 20 13 8 9 9 8 9 7 6 6 7 9 9 9 9 10 11 11 11 12 12 12 12 12 11 12 13 16 18 17 16 14 14 13 13 10 10 13 13 12 10 10 9 9 8 8 8 7 7 6 6 6 6 6 6 7 7 8 8 8 8 9 9 9 9 8 8 8 8 9 9 9 10 11 11
3 4 4 2 4 4 8 9 4 6 12 11 24 23 20 3 8 14 17 19 18 19 18 14 14 14 10 9 8 9 9 7 7 7 9 9 9 11 12 12 12 13 12 11 12 11 13 13 14 14 14 14 15 15 15 14 13 11 11 11 12 11 11 10 10 9 8 8 8 8 8 7 7 6 6 7 7 7 7 8 7 7 8 9 9 9 8 8 8 8 8 9 9 10 11 12 12
6 5 8 5 3 3 4 3 8 8 8 10 12 19 12 2 7 13 16 18 17 17 14 11 12 11 11 10 9 7 7 6 7 8 8 8 9 9 9 9 9 8 9 9 11 12 12 11 13 15 17 16 15 15 14 13 12 12 14 14 13 12 12 10 10 10 9 9 8 8 8 7 6 7 7 7 7 8 8 8 8 8 9 9 9 9 8 7 8 9 9 10 10 11 12 12 12
13 16 16 17 10 6 7 11 3 3 6 8 9 17 20 4 6 8 11 15 14 14 10 7 8 9 9 8 8 8 8 8 9 9 9 10 9 8 8 8 8 9 10 10 9 9 11 13 12 14 15 14 15 15 14 14 12 12 14 13 13 12 11 10 11 10 10 9 9 8 8 7 7 7 7 7 8 7 7 8 8 8 9 10 10 9 9 8 8 9 10 8 9 11 12 13 12
Wind_Direction
261 220 244 272 257 257 277 216 248 181 234 243 248 201 116 172 80 172 195 139 212 146 101 144 34 151 201 257 349 11 46 332 14 264 23 70 127 68 62 44 79 99 80 57 65 31 46 42 35 48 51 57 58 60 61 63 64 61 61 60 57 56 58 59 58 56 52 49 50 49 47 44 42 40 43 45 44 45 42 38 32 27 26 23 25 20 18 18 16 16 12 22 32 30 24 18 8
259 269 251 264 262 268 200 193 269 240 211 258 238 228 131 143 178 210 187 190 282 138 127 90 185 36 13 334 326 320 170 53 34 78 98 115 143 111 99 70 58 75 64 60 60 55 59 47 42 52 56 58 61 64 64 64 62 62 62 62 61 62 63 63 61 59 56 53 49 46 47 46 43 41 39 39 37 36 36 33 30 25 21 18 20 22 21 21 19 20 19 18 32 30 24 18 14
278 248 218 224 240 248 325 209 252 246 253 259 135 151 120 169 200 193 187 181 99 108 121 104 79 221 232 280 243 228 111 111 102 96 99 145 157 140 130 88 74 64 75 58 58 65 68 51 46 57 63 63 64 65 65 66 64 64 64 63 63 63 62 62 61 60 59 58 57 56 53 50 48 46 44 42 40 35 33 31 28 24 19 16 13 17 15 15 16 18 19 22 31 30 21 18 14
284 283 286 234 219 219 246 205 256 284 280 292 263 134 174 182 189 159 77 90 102 121 141 141 188 38 259 211 260 6 158 131 69 119 131 182 40 128 129 105 134 91 91 92 82 80 59 57 56 64 64 68 69 68 69 68 67 66 65 64 65 64 63 62 61 60 60 58 59 57 56 53 51 49 46 43 40 37 35 33 30 28 25 21 18 15 14 14 14 15 17 13 21 26 18 15 12
271 218 266 270 282 211 251 245 262 266 261 319 357 139 164 189 141 112 95 96 104 142 174 164 193 104 337 313 8 263 82 90 119 46 107 88 127 114 135 141 164 138 126 109 96 88 82 51 59 66 72 72 73 73 73 71 72 71 68 68 67 66 65 64 64 64 61 60 59 57 56 54 52 50 48 44 41 38 36 33 31 29 28 25 22 19 16 15 14 14 14 16 19 18 14 9 9
258 244 187 268 279 9 277 263 239 241 263 338 300 52 151 162 140 125 118 112 98 110 10 176 274 150 203 223 17 322 48 221 106 104 140 130 119 135 133 175 162 139 124 103 74 86 77 69 68 69 72 75 77 78 77 78 78 74 73 72 70 69 68 67 66 65 63 62 60 58 56 54 54 52 49 47 44 42 38 37 33 29 26 24 21 19 18 16 15 14 14 13 15 13 8 7 8
247 211 186 235 235 221 255 249 262 274 75 334 329 9 157 140 124 131 131 124 125 130 132 204 141 124 230 124 185 69 98 77 183 109 67 131 135 138 157 155 144 127 128 119 107 87 61 64 75 77 76 77 79 80 80 80 78 76 76 73 72 71 70 69 67 65 65 64 63 60 58 57 54 52 50 47 44 42 41 38 38 33 29 25 21 18 16 15 14 15 14 14 14 12 8 6 3
284 277 153 225 216 201 238 258 268 274 55 19 51 349 8 143 138 155 154 177 171 201 180 206 209 252 60 153 236 94 96 56 70 100 112 137 138 143 167 152 146 138 134 116 91 87 70 50 68 73 78 79 80 80 80 77 75 76 75 74 73 71 71 70 68 67 66 65 64 63 61 59 57 54 51 48 45 43 40 38 35 33 30 27 22 20 16 14 13 12 13 12 13 11 9 6 4
224 264 68 270 253 209 258 259 271 261 273 142 125 70 350 149 172 166 166 192 104 205 161 185 201 201 113 169 234 117 136 123 129 126 134 138 146 151 157 165 146 132 120 112 102 100 82 47 59 69 71 77 77 76 75 73 73 73 72 72 71 70 69 69 68 67 64 63 63 62 61 60 58 56 53 50 47 44 41 38 36 33 29 25 23 20 17 14 11 10 11 9 9 8 5 4 2
203 256 194 242 284 257 251 255 250 285 314 85 104 157 172 164 183 192 178 186 185 179 178 182 190 236 72 256 153 172 174 150 136 138 143 147 147 151 138 116 127 142 133 117 107 101 90 63 54 62 69 71 72 72 72 72 72 69 69 68 68 68 67 66 65 64 62 62 61 60 60 60 59 57 55 50 48 45 41 39 37 34 30 26 22 19 16 12 10 8 7 6 4 2 1 359 357
226 187 306 266 238 257 255 264 257 147 219 116 174 137 173 175 186 197 193 203 152 184 122 144 200 233 249 253 275 63 117 151 158 159 156 150 152 154 144 131 127 142 122 110 118 126 127 99 65 58 68 70 72 73 71 72 70 69 68 68 67 66 65 64 63 61 59 58 57 57 57 57 57 56 55 52 49 47 42 38 36 33 30 27 23 20 16 14 9 7 4 2 359 356 354 353 350
248 208 178 250 256 263 284 310 319 307 110 211 215 160 169 182 184 200 196 204 177 184 180 170 209 205 230 249 188 154 140 166 176 154 158 151 160 159 148 148 143 125 123 124 124 122 124 128 119 79 67 72 73 72 71 71 69 70 69 69 68 67 65 65 62 60 59 57 57 55 53 52 51 51 50 49 46 44 42 37 34 32 29 25 21 18 15 12 10 8 4 360 357 354 351 349 346
263 308 233 254 269 278 303 295 284 324 293 245 202 164 158 186 196 201 201 212 188 202 205 191 107 237 228 231 76 150 172 174 173 155 156 164 158 151 161 143 146 132 117 124 122 116 120 120 119 113 97 86 72 69 71 71 71 70 68 67 66 64 64 62 59 58 57 56 55 54 53 50 49 47 46 44 41 36 36 32 29 28 26 22 18 17 13 9 6 4 1 358 354 351 347 344 342
245 267 278 269 265 270 274 280 292 285 284 65 116 137 175 190 204 212 211 215 205 210 30 174 171 187 260 293 169 184 191 169 165 155 160 165 152 156 161 143 143 134 130 139 130 129 134 128 121 134 147 130 116 93 70 67 70 72 72 70 68 67 65 63 62 60 58 57 55 55 57 57 53 49 47 43 43 35 29 29 23 27 25 21 18 15 12 9 5 2 357 354 349 347 343 340 339
250 314 263 262 282 283 260 263 292 307 303 105 120 158 174 201 205 212 227 227 209 68 97 95 190 158 278 198 205 179 165 166 158 157 159 157 156 162 157 152 150 141 148 157 136 150 144 146 137 137 135 126 120 103 98 74 67 71 74 75 73 72 68 65 64 61 57 61 62 60 69 91 85 65 56 54 47 44 30 26 18 25 23 22 17 15 14 10 7 0 355 351 348 341 338 334 333
265 264 241 264 262 268 238 238 257 272 279 108 137 185 186 148 204 209 219 332 74 265 153 188 204 232 360 277 57 31 146 153 151 156 154 155 162 166 165 170 174 157 164 171 160 163 158 156 157 146 146 132 115 104 100 95 77 73 74 73 73 70 65 66 65 63 66 44 41 26 2 49 55 55 36 38 34 37 32 18 12 16 16 14 11 9 10 8 4 359 357 351 346 341 334 327 318
245 256 244 236 259 249 226 268 215 285 41 94 143 179 198 199 179 239 27 262 254 181 196 214 190 224 250 62 67 97 142 145 148 155 158 163 170 176 183 188 184 171 173 185 181 170 169 171 169 151 142 130 119 116 107 102 118 131 104 91 84 70 65 59 47 53 50 63 23 5 254 43 50 37 30 13 18 22 33 8 6 8 8 8 3 1 3 1 359 356 354 351 345 339 330 313 292
206 217 237 254 262 262 351 292 302 13 293 128 182 194 218 217 161 206 143 242 240 237 212 225 215 218 228 117 148 154 144 152 161 164 173 175 179 184 189 190 187 187 181 185 187 175 176 172 167 159 143 144 135 127 133 138 136 144 110 114 85 88 59 61 57 44 49 41 7 38 43 41 36 47 32 13 7 7 27 7 358 358 2 2 358 353 355 357 353 351 350 346 341 334 321 324 338
223 249 253 270 285 2 348 317 310 298 289 341 215 198 221 245 162 167 204 223 215 231 233 221 227 227 206 160 157 158 159 165 172 181 180 183 187 191 189 186 191 187 182 184 183 179 180 168 179 162 158 148 141 136 149 148 163 135 136 125 132 111 87 53 60 54 43 37 34 38 47 39 20 51 35 353 310 287 62 358 352 344 355 358 354 340 352 356 348 349 348 343 333 340 343 343 340
234 270 259 261 340 299 288 266 277 274 296 269 244 211 220 228 202 134 219 239 213 224 228 215 227 231 212 191 168 171 173 177 183 188 191 193 193 195 192 191 191 195 184 183 175 178 179 173 175 158 159 157 155 152 162 165 162 162 148 148 140 137 127 112 77 51 48 42 33 46 44 35 13 37 49 215 307 6 17 343 315 314 356 4 349 340 352 4 344 354 351 347 343 354 348 343 338
115 237 250 295 20 309 358 148 254 264 266 265 260 195 222 209 202 168 227 241 240 233 227 222 216 225 217 188 178 176 181 186 191 196 198 199 200 203 201 197 193 189 183 173 170 177 177 174 165 163 164 165 167 156 173 169 164 163 147 150 130 117 129 111 102 84 63 46 40 47 43 37 27 32 25 11 2 1 0 351 354 358 357 350 349 354 356 349 350 353 352 353 354 349 346 340 336
324 244 272 302 297 284 54 81 92 250 275 265 246 204 239 192 209 216 228 235 244 236 231 226 232 229 223 179 183 181 187 192 195 198 203 202 201 202 201 198 194 188 174 179 177 171 178 172 170 163 168 166 169 166 177 137 187 165 161 154 147 129 123 126 111 99 81 51 50 30 46 50 31 42 26 16 4 358 0 357 352 356 352 349 354 349 356 348 345 351 352 349 348 344 338 334 331
248 246 242 261 272 272 78 213 120 190 229 231 230 235 227 188 228 218 228 233 240 51 25 278 233 239 254 168 171 184 191 197 197 200 201 204 205 205 202 197 190 187 178 183 172 173 175 172 171 166 168 164 169 165 156 169 180 163 162 153 167 148 151 150 122 117 85 68 51 53 37 41 42 35 26 17 8 2 0 357 351 351 354 349 351 346 351 345 343 344 348 343 339 335 330 327 319
247 273 305 262 227 245 250 231 133 222 237 242 282 35 234 229 248 238 231 235 243 250 129 93 34 68 142 159 177 188 193 197 201 203 201 204 203 202 200 197 193 184 176 178 174 169 174 172 169 170 167 165 162 169 173 169 167 158 145 146 181 120 166 136 129 93 122 99 62 48 28 50 38 41 24 16 9 5 0 354 350 345 354 344 347 344 345 343 338 340 337 336 335 332 328 321 320
232 247 261 256 254 252 240 221 219 230 239 254 291 250 243 243 257 305 248 245 240 241 191 181 186 182 183 188 187 195 200 203 206 205 205 210 208 205 203 203 196 183 181 180 175 170 173 171 170 176 169 169 168 171 179 169 161 167 167 169 147 164 161 146 122 143 123 102 84 64 40 46 42 38 29 17 4 7 357 353 348 349 342 343 344 339 345 338 334 334 330 330 328 324 321 320 320
213 248 287 260 256 253 226 227 231 226 239 216 236 246 251 250 359 270 257 252 239 238 232 203 190 200 201 205 202 199 203 206 205 204 206 204 204 202 203 201 196 193 186 178 174 172 170 170 175 178 170 173 168 173 175 169 168 164 171 169 144 174 148 132 162 130 106 110 94 68 61 45 45 34 34 14 9 3 355 352 347 344 336 333 340 334 337 333 327 322 321 320 317 318 315 313 310
359 287 280 271 266 263 226 237 240 209 241 207 227 251 256 142 212 269 249 255 234 228 231 218 207 217 213 210 211 207 207 207 204 204 202 203 204 205 202 199 201 197 182 181 177 171 170 169 176 176 170 171 168 177 176 176 170 168 167 163 165 163 150 160 152 123 112 96 88 75 77 58 48 44 35 20 8 1 354 349 342 334 325 328 330 323 325 320 311 303 308 306 307 307 301 303 303
300 315 287 265 255 246 243 230 236 182 243 214 230 254 267 198 211 246 238 98 177 207 217 217 217 225 222 218 214 211 212 212 206 200 204 200 203 201 200 197 198 192 185 182 176 169 167 174 175 175 173 168 173 178 173 172 173 165 165 166 162 150 162 158 140 130 132 114 102 90 70 59 44 57 43 27 7 354 343 341 324 318 316 314 322 316 312 302 292 291 290 293 291 288 298 299 297
299 293 279 270 246 242 229 231 221 194 224 154 169 268 242 226 234 236 239 151 174 202 215 219 221 223 224 222 218 213 212 208 203 203 208 207 201 198 201 196 191 190 189 180 174 169 170 174 174 175 171 170 181 174 173 173 169 164 172 170 152 156 163 160 150 143 142 130 127 106 78 68 61 47 42 25 358 332 328 317 308 303 302 313 313 301 295 291 292 299 301 297 295 302 298 304 306
271 248 257 281 268 255 233 211 198 173 205 149 182 277 239 211 228 245 225 175 182 209 222 227 227 224 224 220 218 217 212 207 207 207 207 207 201 199 201 194 192 188 183 179 173 174 170 172 170 171 175 173 182 177 175 174 170 172 171 166 153 171 163 156 152 154 152 148 144 122 122 102 70 76 39 20 346 323 311 297 296 299 298 319 307 297 303 305 300 302 308 310 312 309 311 314 315
253 264 217 260 275 270 124 162 166 202 143 169 207 252 274 271 226 229 186 173 181 214 222 229 229 222 218 217 217 217 214 208 210 207 208 206 204 201 200 195 191 187 177 179 180 174 168 169 169 169 175 174 179 179 178 175 170 171 171 166 165 174 156 159 156 153 166 177 156 149 144 126 125 94 63 356 326 304 296 297 299 298 319 318 305 307 306 300 299 311 319 318 316 316 319 317 316
227 249 254 222 229 260 169 184 172 194 144 196 179 248 264 277 279 126 141 178 201 227 234 232 233 226 216 214 216 217 218 212 214 212 209 207 204 201 197 196 189 186 185 179 174 171 174 169 169 166 172 174 177 177 176 169 169 169 171 166 154 168 158 161 158 163 177 175 161 150 147 157 136 122 93 4 293 306 300 296 298 313 318 311 310 305 302 302 314 317 318 319 321 320 321 318 316
216 229 263 269 251 258 246 188 200 230 123 186 197 247 285 275 96 115 129 178 206 235 242 240 243 238 224 214 212 216 217 215 210 210 210 205 204 201 196 194 190 189 184 178 174 174 174 169 169 170 175 174 177 173 174 170 171 169 163 166 151 163 168 163 166 169 182 180 173 173 158 162 167 145 152 239 289 285 291 298 303 309 313 308 302 303 299 305 319 320 314 320 318 316 317 314 314
252 211 250 268 270 275 267 113 231 180 188 198 216 244 246 258 255 173 187 197 208 235 245 247 250 246 234 219 212 211 213 211 209 204 209 203 200 199 193 192 190 185 186 181 175 175 176 171 172 173 175 175 175 172 174 171 169 165 164 163 164 166 174 170 170 178 191 183 174 178 160 173 174 160 168 272 285 289 287 289 294 296 294 295 296 293 297 301 301 303 307 313 318 315 311 313 311
285 293 269 264 266 253 261 264 164 176 202 238 226 226 252 259 262 264 236 200 221 242 251 255 256 250 244 229 219 214 213 211 211 202 201 199 197 194 191 189 186 185 185 182 175 175 172 168 169 173 175 175 175 171 171 170 167 168 167 165 167 175 174 184 186 188 191 184 180 170 163 187 179 181 200 227 261 277 284 289 287 286 288 288 289 291 293 294 291 297 304 304 303 301 301 297 295
277 283 280 286 283 280 269 291 133 183 185 221 234 244 254 257 260 261 259 255 232 242 254 258 257 256 250 240 227 223 216 218 209 201 196 193 192 189 187 185 184 183 184 183 178 174 173 167 170 174 179 176 174 170 169 173 170 175 171 169 172 189 186 185 190 201 188 189 174 170 178 197 186 181 194 225 252 265 276 279 284 286 286 283 284 285 288 293 306 306 298 300 300 293 286 285 290
280 278 278 271 274 273 271 264 154 188 250 241 250 253 257 262 264 268 269 270 266 260 256 254 255 255 248 241 233 225 220 218 192 198 189 188 187 185 182 180 182 182 186 183 180 178 178 174 173 178 177 178 176 174 176 176 176 176 179 184 186 181 188 185 188 191 193 190 178 178 183 196 190 196 207 229 242 250 259 272 274 276 272 276 275 275 280 288 291 289 291 287 288 289 287 287 293
267 272 274 275 268 269 269 272 136 190 225 261 260 267 264 267 266 264 265 267 265 259 259 257 259 256 249 243 235 226 223 194 183 187 189 183 183 179 177 180 182 182 188 184 185 183 183 179 179 176 176 180 182 180 175 182 183 183 179 183 182 178 179 185 189 189 189 185 180 184 192 199 196 201 212 223 237 245 257 264 270 272 275 272 273 279 280 278 275 271 276 285 275 285 289 292 292
267 258 264 270 264 264 270 111 144 150 194 262 266 270 269 269 266 263 258 251 256 257 255 262 265 266 257 249 239 231 202 194 184 192 184 182 180 176 177 183 187 189 186 188 187 184 184 182 182 178 179 180 183 180 176 182 179 180 179 177 179 169 176 181 185 180 176 181 186 193 200 200 199 204 213 222 232 238 246 258 263 269 270 271 275 275 275 272 270 272 275 279 294 284 283 280 280
253 246 240 241 257 277 268 122 161 196 209 287 299 288 273 268 259 252 248 244 245 252 260 260 259 262 257 250 241 219 205 194 194 191 189 182 179 178 181 185 187 188 189 192 190 188 185 187 183 181 180 180 181 180 178 176 172 163 159 153 159 164 169 162 161 159 174 182 193 195 201 201 200 208 209 217 220 227 236 248 258 264 269 269 269 273 272 269 267 267 269 278 287 292 289 293 294
225 232 244 253 253 251 257 301 289 232 226 265 285 271 262 243 249 240 237 234 238 253 259 266 261 250 252 258 251 228 215 197 199 191 188 184 185 188 188 187 186 190 193 193 191 189 189 188 183 181 178 180 178 174 173 166 153 147 139 124 124 125 93 159 180 203 202 203 204 202 205 200 201 205 212 218 225 231 236 241 249 259 265 267 268 267 267 264 268 271 273 272 271 284 294 293 293
248 224 227 242 256 268 274 331 349 311 293 159 302 307 270 255 226 224 135 120 202 239 253 258 262 250 231 232 231 223 213 208 203 196 189 188 189 189 189 189 191 194 197 195 192 189 185 184 180 180 178 177 176 172 170 164 164 166 165 168 175 186 195 192 201 198 190 195 202 196 197 195 200 203 210 217 221 229 234 237 244 254 258 261 259 261 265 269 262 257 259 265 272 272 281 294 290
249 248 243 255 258 269 280 288 351 284 271 101 297 352 295 158 231 201 156 179 213 196 216 244 261 267 220 210 202 203 199 203 209 203 189 185 188 187 191 193 194 196 198 188 188 189 187 183 180 181 180 176 175 171 172 168 171 178 180 184 187 187 193 200 199 195 190 186 181 186 187 192 199 207 212 215 221 225 231 236 241 248 256 258 262 263 262 260 262 260 259 257 266 278 278 282 288
247 71 270 103 252 252 262 267 243 265 291 266 159 241 283 287 193 212 196 195 195 208 230 229 250 259 256 181 190 190 197 199 191 197 193 191 187 190 194 193 192 196 186 184 185 187 187 183 179 182 180 178 175 172 176 176 176 179 181 186 191 195 197 194 185 181 171 163 171 179 187 197 202 208 213 214 220 222 227 234 239 246 251 254 256 257 258 260 262 260 256 260 265 262 265 272 289
262 97 35 49 24 276 203 234 258 266 299 273 194 182 254 267 235 194 201 219 216 221 237 242 233 248 266 243 179 188 191 193 187 185 193 192 193 194 193 192 192 186 184 184 184 184 183 182 180 181 183 178 177 175 176 180 181 180 179 182 189 194 189 183 160 164 168 176 181 187 195 202 204 208 211 215 216 221 225 230 236 244 247 252 253 257 257 257 259 263 266 263 261 266 266 272 276
126 134 84 79 93 99 221 251 255 273 263 260 184 171 234 277 224 180 195 207 202 218 227 238 242 229 244 264 177 182 185 190 193 192 191 194 194 193 193 186 183 187 183 184 180 178 181 179 183 183 187 182 177 177 177 180 183 178 182 186 184 181 179 179 174 175 180 181 190 194 197 202 207 209 211 213 215 216 221 226 232 240 247 251 254 257 262 264 262 259 256 257 261 264 264 263 261
118 139 156 144 202 215 196 231 251 283 249 248 198 184 194 271 233 161 157 195 197 203 218 233 241 228 228 248 220 167 180 183 187 194 194 192 188 185 182 187 185 181 180 180 176 178 177 181 185 187 188 181 178 179 178 181 181 182 184 184 184 182 180 180 178 183 181 183 194 197 200 205 204 207 203 205 207 213 216 224 233 244 252 255 257 260 258 256 258 261 259 258 258 260 263 261 263
174 150 223 248 236 200 242 219 175 240 265 218 180 189 192 238 140 175 191 183 193 189 186 226 251 240 219 214 212 175 180 177 186 186 182 179 174 181 180 187 185 182 177 180 178 176 180 184 184 188 189 186 180 178 179 182 181 184 184 184 185 187 178 179 184 183 185 188 191 197 200 204 210 208 210 214 213 212 217 226 236 247 250 252 253 251 254 258 262 262 264 266 266 259 262 264 263
214 201 189 221 250 183 238 163 223 208 251 102 169 187 218 230 238 244 194 195 189 191 205 249 254 250 235 224 149 160 168 174 182 180 172 174 178 178 185 187 183 184 184 183 181 179 182 185 187 188 194 186 183 179 181 181 180 184 183 184 184 183 185 179 183 182 181 186 190 197 199 208 210 212 214 215 217 212 215 229 238 243 245 247 253 255 259 262 264 262 260 264 264 264 260 259 263
190 197 191 202 250 237 257 251 239 263 213 123 135 85 249 273 269 230 239 219 201 202 212 234 244 248 248 181 131 148 166 182 186 179 176 175 177 180 185 185 188 187 185 186 184 183 184 187 190 193 195 186 183 180 182 182 183 182 181 180 180 177 184 180 184 185 184 189 190 195 201 207 211 218 217 219 215 212 222 234 247 251 255 257 258 259 259 261 262 264 264 263 265 265 266 262 262
201 199 181 213 220 248 270 259 260 256 283 164 181 135 229 141 237 180 214 217 209 210 207 223 234 232 225 111 128 152 177 194 188 184 183 179 179 180 184 186 187 189 187 185 187 187 184 188 192 194 191 190 184 182 180 183 181 179 177 178 176 178 178 178 184 180 182 186 189 192 200 204 212 216 220 224 225 225 235 246 249 255 256 258 262 263 262 262 263 266 263 263 265 263 264 263 262
188 194 219 250 233 223 244 261 298 306 319 287 172 215 247 245 50 173 206 206 204 209 203 232 236 231 213 181 188 193 186 186 188 190 187 184 181 182 188 187 188 188 187 185 189 184 187 193 192 194 193 187 183 181 182 181 178 176 177 176 177 175 174 176 178 179 181 185 190 191 199 205 209 219 228 227 232 234 242 248 252 253 257 258 259 262 263 263 264 265 264 265 266 262 263 262 263
161 158 205 210 26 217 256 284 285 114 265 260 170 251 246 259 263 181 171 191 199 194 206 230 236 232 220 208 209 197 194 184 182 191 186 184 182 187 193 193 189 187 185 189 189 187 190 186 189 192 191 185 184 181 178 178 176 173 177 174 173 173 172 175 177 176 178 178 183 192 196 203 209 218 226 226 232 237 241 245 252 255 257 258 259 260 260 261 263 265 266 267 266 266 265 266 265
111 220 213 62 359 22 240 261 261 253 265 276 258 262 275 266 292 148 167 188 192 197 202 226 228 223 222 228 220 198 191 192 191 190 191 191 192 192 194 197 195 191 191 189 191 188 188 188 187 187 187 187 183 177 177 175 173 173 173 174 174 172 172 175 174 171 174 173 182 187 193 201 208 211 215 221 225 236 244 246 249 253 255 256 258 260 259 262 264 265 265 266 265 268 269 267 265
281 212 343 189 197 203 210 234 246 271 254 270 279 269 268 256 253 158 186 184 193 200 210 219 210 211 216 219 233 231 208 177 183 200 196 195 197 200 199 202 200 196 191 191 183 181 182 186 187 188 189 185 177 174 174 172 171 169 170 171 170 169 169 172 169 169 169 177 184 189 195 201 202 206 212 218 226 236 239 244 245 252 255 257 259 261 264 264 262 265 267 269 268 267 267 269 267
179 299 261 335 324 228 178 192 237 235 266 282 280 289 272 177 238 172 185 182 195 200 214 219 223 221 213 220 221 221 219 193 191 194 200 195 205 208 198 196 197 196 191 186 181 177 183 184 183 188 185 180 174 173 174 171 170 162 161 163 168 168 168 169 170 168 176 181 187 190 196 201 204 206 215 217 227 233 242 246 248 251 255 260 261 260 261 263 266 264 267 270 270 269 267 268 269
198 223 231 198 206 2 334 292 223 217 236 248 275 291 274 89 198 157 168 181 193 202 204 206 215 216 213 212 206 209 214 201 195 195 195 200 198 193 196 196 198 194 191 184 185 181 179 176 178 181 182 178 175 172 167 169 164 162 159 165 166 166 167 166 166 172 176 182 185 191 198 200 200 209 208 218 222 231 237 240 245 249 254 258 261 262 259 263 263 265 265 266 270 268 267 266 266
189 179 200 193 171 202 215 247 194 232 218 233 246 258 273 158 92 144 164 184 193 198 190 180 200 205 206 206 212 203 207 225 215 210 212 200 185 173 185 186 185 186 192 182 175 163 172 180 178 179 182 180 174 172 170 166 162 160 162 163 163 164 165 165 168 173 180 181 186 191 193 195 206 209 211 220 224 230 236 238 241 246 249 252 255 257 260 260 261 264 265 264 265 268 267 267 268